EDW1583 LOWW-LSZH

Flight info

Callsign EDW1583
Flight time N/A
Altitude 30000
Route SOVIL DCT SITNI DCT BAGSI DCT MATIG DCT TRAUN L856 NEGRA
Aircraft A320/M-SDE3FGHIRWY/LB1

Departure

Time 2026-04-21 17:59
Airport Vienna International Airport (LOWW)

Arrival

Time N/A
Airport Zürich Airport (LSZH)
Time Latitude Longitude Altitude Speed Heading
2026-04-21 17:20 48.11691 16.56845 620 ft 0 kts 25°
2026-04-21 17:51 48.11688 16.56843 608 ft 3 kts 26°
2026-04-21 17:51 48.11665 16.56825 623 ft 4 kts 31°
2026-04-21 17:51 48.11643 16.56802 618 ft 4 kts 45°
2026-04-21 17:52 48.11630 16.56772 623 ft 4 kts 92°
2026-04-21 17:52 48.11631 16.56759 621 ft 0 kts 116°
2026-04-21 17:54 48.11629 16.56766 616 ft 4 kts 115°
2026-04-21 17:54 48.11599 16.56859 618 ft 11 kts 115°
2026-04-21 17:54 48.11566 16.56959 612 ft 10 kts 116°
2026-04-21 17:54 48.11537 16.57048 613 ft 9 kts 116°
2026-04-21 17:55 48.11512 16.57125 608 ft 8 kts 116°
2026-04-21 17:55 48.11490 16.57192 611 ft 7 kts 116°
2026-04-21 17:55 48.11470 16.57253 618 ft 8 kts 116°
2026-04-21 17:55 48.11448 16.57320 619 ft 7 kts 116°
2026-04-21 17:56 48.11427 16.57377 615 ft 7 kts 128°
2026-04-21 17:56 48.11372 16.57374 614 ft 6 kts 206°
2026-04-21 17:56 48.11358 16.57364 608 ft 1 kts 205°
2026-04-21 17:56 48.11319 16.57336 614 ft 11 kts 206°
2026-04-21 17:57 48.11255 16.57290 608 ft 9 kts 205°
2026-04-21 17:57 48.11200 16.57305 609 ft 10 kts 131°
2026-04-21 17:57 48.11162 16.57418 619 ft 12 kts 116°
2026-04-21 17:57 48.11127 16.57527 608 ft 11 kts 116°
2026-04-21 17:58 48.11094 16.57622 617 ft 9 kts 125°
2026-04-21 17:58 48.11024 16.57636 615 ft 14 kts 206°
2026-04-21 17:58 48.10936 16.57569 608 ft 13 kts 219°
2026-04-21 17:58 48.10944 16.57445 611 ft 16 kts 296°
2026-04-21 17:59 48.11084 16.57013 616 ft 81 kts 296°
2026-04-21 17:59 48.11428 16.55965 610 ft 139 kts 296°
2026-04-21 17:59 48.11914 16.54544 962 ft 153 kts 301°
2026-04-21 17:59 48.12158 16.52972 1575 ft 168 kts 266°
2026-04-21 18:00 48.11590 16.51337 2003 ft 196 kts 224°
2026-04-21 18:00 48.10419 16.50090 2378 ft 218 kts 217°
2026-04-21 18:00 48.09148 16.48756 2864 ft 231 kts 218°
2026-04-21 18:00 48.07832 16.47349 3691 ft 232 kts 220°
2026-04-21 18:01 48.06691 16.45566 4231 ft 248 kts 244°
2026-04-21 18:01 48.06215 16.43029 4645 ft 262 kts 271°
2026-04-21 18:01 48.06151 16.40257 5406 ft 270 kts 272°
2026-04-21 18:01 48.06087 16.37422 6297 ft 274 kts 272°
2026-04-21 18:02 48.06018 16.34568 7194 ft 276 kts 271°
2026-04-21 18:02 48.05944 16.31722 8081 ft 278 kts 271°
2026-04-21 18:02 48.05867 16.28815 9006 ft 280 kts 271°
2026-04-21 18:02 48.05789 16.25899 9917 ft 281 kts 271°
2026-04-21 18:03 48.05712 16.22936 10570 ft 293 kts 271°
2026-04-21 18:03 48.05634 16.19808 10816 ft 316 kts 270°
2026-04-21 18:03 48.05549 16.16401 11020 ft 339 kts 270°
2026-04-21 18:03 48.05453 16.12773 11324 ft 356 kts 270°
2026-04-21 18:04 48.05347 16.09043 11953 ft 362 kts 269°
2026-04-21 18:04 48.05239 16.05292 12651 ft 366 kts 269°
2026-04-21 18:04 48.05126 16.01460 13360 ft 369 kts 269°
2026-04-21 18:04 48.05012 15.97609 14066 ft 373 kts 269°
2026-04-21 18:05 48.04897 15.93719 14698 ft 375 kts 269°
2026-04-21 18:05 48.04782 15.89797 15329 ft 378 kts 269°
2026-04-21 18:05 48.04668 15.85908 15977 ft 380 kts 269°
2026-04-21 18:05 48.04548 15.81945 16654 ft 382 kts 269°
2026-04-21 18:06 48.04425 15.77955 17312 ft 384 kts 269°
2026-04-21 18:06 48.04302 15.73997 17958 ft 386 kts 269°